AEE909 LCLK-LGAV

Flight info

Callsign AEE909
Flight time 1h 29m
Altitude 34000
Route PHA M31 GENOS DCT PEDER DCT EVENO UM601 RDS UL995 VARIX
Aircraft A320/M-SDE3FGHIRWY/LB1

Departure

Time 2026-05-04 17:28
Airport Larnaca International Airport (LCLK)

Arrival

Time 2026-05-04 18:57
Airport Athens Eleftherios Venizelos International Airport (LGAV)
Time Latitude Longitude Altitude Speed Heading
2026-05-04 16:48 34.86951 33.60857 23 ft 0 kts 45°
2026-05-04 17:10 34.86930 33.60830 23 ft 4 kts 45°
2026-05-04 17:10 34.86879 33.60778 22 ft 4 kts 89°
2026-05-04 17:11 34.86878 33.60774 23 ft 0 kts 119°
2026-05-04 17:14 34.86878 33.60775 22 ft 1 kts 119°
2026-05-04 17:14 34.86770 33.60916 20 ft 16 kts 136°
2026-05-04 17:15 34.86693 33.61016 20 ft 13 kts 113°
2026-05-04 17:15 34.86846 33.61245 20 ft 22 kts 45°
2026-05-04 17:16 34.86914 33.61470 20 ft 15 kts 44°
2026-05-04 17:16 34.87093 33.61689 21 ft 5 kts 45°
2026-05-04 17:17 34.87127 33.61730 21 ft 10 kts 45°
2026-05-04 17:17 34.87249 33.61878 21 ft 10 kts 45°
2026-05-04 17:18 34.87311 33.61955 20 ft 18 kts 45°
2026-05-04 17:18 34.87457 33.62134 20 ft 16 kts 45°
2026-05-04 17:19 34.87588 33.62294 20 ft 14 kts 45°
2026-05-04 17:19 34.87651 33.62371 20 ft 6 kts 45°
2026-05-04 17:20 34.87739 33.62478 20 ft 13 kts 45°
2026-05-04 17:20 34.87867 33.62634 20 ft 8 kts 44°
2026-05-04 17:20 34.87910 33.62686 20 ft 10 kts 45°
2026-05-04 17:21 34.88026 33.62829 20 ft 14 kts 45°
2026-05-04 17:21 34.88192 33.63032 20 ft 15 kts 44°
2026-05-04 17:22 34.88272 33.63130 20 ft 17 kts 46°
2026-05-04 17:22 34.88345 33.63219 22 ft 13 kts 45°
2026-05-04 17:23 34.88444 33.63368 20 ft 7 kts 97°
2026-05-04 17:23 34.88441 33.63377 20 ft 1 kts 110°
2026-05-04 17:23 34.88420 33.63415 21 ft 4 kts 140°
2026-05-04 17:24 34.88405 33.63430 22 ft 0 kts 140°
2026-05-04 17:25 34.88382 33.63456 21 ft 6 kts 136°
2026-05-04 17:26 34.88298 33.63513 20 ft 9 kts 193°
2026-05-04 17:26 34.88271 33.63491 22 ft 0 kts 222°
2026-05-04 17:27 34.88229 33.63438 19 ft 36 kts 225°
2026-05-04 17:27 34.87285 33.62282 21 ft 146 kts 225°
2026-05-04 17:28 34.85763 33.60371 957 ft 157 kts 230°
2026-05-04 17:29 34.83423 33.57264 2213 ft 187 kts 231°
2026-05-04 17:29 34.80241 33.53161 3272 ft 252 kts 229°
2026-05-04 17:30 34.76549 33.48460 5906 ft 260 kts 230°
2026-05-04 17:31 34.74001 33.45212 7524 ft 267 kts 230°
2026-05-04 17:31 34.70113 33.40256 9969 ft 273 kts 232°
2026-05-04 17:32 34.68671 33.35883 10572 ft 301 kts 272°
2026-05-04 17:33 34.68927 33.28081 12477 ft 314 kts 272°
2026-05-04 17:33 34.69016 33.25418 13166 ft 317 kts 272°
2026-05-04 17:34 34.69277 33.17322 15058 ft 324 kts 272°
2026-05-04 17:34 34.69363 33.14569 15661 ft 326 kts 272°
2026-05-04 17:35 34.69617 33.06160 17346 ft 337 kts 273°
2026-05-04 17:35 34.69788 33.00446 18462 ft 343 kts 273°
2026-05-04 17:35 34.69878 32.97539 18983 ft 345 kts 273°
2026-05-04 17:36 34.69965 32.94630 19513 ft 348 kts 272°
2026-05-04 17:36 34.70051 32.91671 20065 ft 351 kts 272°
2026-05-04 17:36 34.70136 32.88688 20596 ft 353 kts 272°
2026-05-04 17:36 34.70220 32.85689 21092 ft 356 kts 272°
2026-05-04 17:37 34.70304 32.82696 21595 ft 359 kts 272°
2026-05-04 17:37 34.70389 32.79652 22101 ft 362 kts 272°
2026-05-04 17:37 34.70474 32.76568 22601 ft 365 kts 272°
2026-05-04 17:37 34.70562 32.73465 23105 ft 368 kts 272°
2026-05-04 17:38 34.70652 32.70339 23580 ft 370 kts 272°
2026-05-04 17:38 34.70740 32.67199 23998 ft 373 kts 272°
2026-05-04 17:38 34.70825 32.64076 24422 ft 374 kts 272°
2026-05-04 17:38 34.70911 32.60896 24839 ft 376 kts 272°
2026-05-04 17:39 34.71887 32.54641 25590 ft 384 kts 295°
2026-05-04 17:39 34.73141 32.51802 25976 ft 386 kts 296°
2026-05-04 17:39 34.74444 32.48928 26359 ft 388 kts 297°
2026-05-04 17:40 34.75762 32.46043 26735 ft 390 kts 297°
2026-05-04 17:40 34.77087 32.43145 27110 ft 392 kts 297°
2026-05-04 17:40 34.78400 32.40265 27476 ft 394 kts 296°
2026-05-04 17:40 34.79732 32.37335 27843 ft 396 kts 296°
2026-05-04 17:41 34.81072 32.34381 28207 ft 398 kts 296°
2026-05-04 17:41 34.82413 32.31406 28531 ft 401 kts 296°
2026-05-04 17:41 34.83739 32.28454 28858 ft 403 kts 296°
2026-05-04 17:41 34.85098 32.25434 29194 ft 405 kts 296°
2026-05-04 17:42 34.86444 32.22435 29523 ft 407 kts 296°
2026-05-04 17:42 34.87811 32.19391 29868 ft 409 kts 296°
2026-05-04 17:42 34.89184 32.16338 30163 ft 411 kts 296°
2026-05-04 17:42 34.90559 32.13278 30507 ft 411 kts 296°
2026-05-04 17:43 34.91917 32.10250 30927 ft 409 kts 296°
2026-05-04 17:43 34.93277 32.07212 31354 ft 407 kts 296°
2026-05-04 17:43 34.94632 32.04189 31757 ft 406 kts 296°
2026-05-04 17:43 34.95989 32.01162 32156 ft 405 kts 296°
2026-05-04 17:44 34.97339 31.98152 32574 ft 404 kts 296°
2026-05-04 17:44 34.98675 31.95171 32993 ft 402 kts 296°
2026-05-04 17:44 35.00013 31.92182 33427 ft 401 kts 296°
2026-05-04 17:44 35.01355 31.89175 33823 ft 400 kts 296°
2026-05-04 17:45 35.03995 31.83235 33920 ft 397 kts 296°
2026-05-04 17:45 35.06611 31.77338 33921 ft 397 kts 296°
2026-05-04 17:46 35.09265 31.71370 33923 ft 398 kts 296°
2026-05-04 17:46 35.11894 31.65435 33923 ft 398 kts 296°
2026-05-04 17:47 35.14517 31.59505 33923 ft 398 kts 296°
2026-05-04 17:47 35.17160 31.53516 33939 ft 399 kts 297°
2026-05-04 17:48 35.19800 31.47523 33912 ft 400 kts 297°
2026-05-04 17:48 35.22426 31.41545 33905 ft 402 kts 297°
2026-05-04 17:49 35.25070 31.35507 33902 ft 402 kts 297°
2026-05-04 17:49 35.27709 31.29479 33902 ft 403 kts 297°
2026-05-04 17:50 35.30355 31.23447 33904 ft 403 kts 297°
2026-05-04 17:50 35.32997 31.17397 33901 ft 404 kts 297°
2026-05-04 17:51 35.35648 31.11318 33903 ft 404 kts 297°
2026-05-04 17:51 35.38298 31.05229 33902 ft 405 kts 297°
2026-05-04 17:52 35.40917 30.99208 33907 ft 405 kts 297°
2026-05-04 17:52 35.43562 30.93108 33901 ft 405 kts 297°
2026-05-04 17:53 35.46207 30.87000 33894 ft 406 kts 297°
2026-05-04 17:53 35.48590 30.81464 33894 ft 407 kts 297°
2026-05-04 17:54 35.51245 30.75314 33900 ft 407 kts 297°
2026-05-04 17:54 35.53883 30.69188 33899 ft 408 kts 297°
2026-05-04 17:55 35.56521 30.63047 33903 ft 408 kts 297°
2026-05-04 17:55 35.59178 30.56867 33904 ft 408 kts 297°
2026-05-04 17:56 35.61807 30.50723 33907 ft 408 kts 297°
2026-05-04 17:56 35.64455 30.44532 33909 ft 408 kts 297°
2026-05-04 17:57 35.67087 30.38358 33908 ft 408 kts 297°
2026-05-04 17:57 35.69708 30.32191 33905 ft 409 kts 297°
2026-05-04 17:58 35.72354 30.25977 33904 ft 409 kts 297°
2026-05-04 17:58 35.74990 30.19784 33906 ft 409 kts 297°
2026-05-04 17:59 35.77181 30.14590 33908 ft 410 kts 297°
2026-05-04 18:00 35.81118 30.05239 33902 ft 411 kts 297°
2026-05-04 18:00 35.83636 29.98876 33898 ft 412 kts 290°
2026-05-04 18:01 35.85454 29.92223 33902 ft 413 kts 289°
2026-05-04 18:01 35.87286 29.85470 33902 ft 414 kts 289°
2026-05-04 18:02 35.90021 29.75368 33902 ft 415 kts 289°
2026-05-04 18:02 35.91830 29.68654 33917 ft 415 kts 289°
2026-05-04 18:03 35.93655 29.61874 33928 ft 415 kts 289°
2026-05-04 18:03 35.95456 29.55152 33934 ft 415 kts 289°
2026-05-04 18:04 35.97278 29.48377 33934 ft 414 kts 289°
2026-05-04 18:05 35.99997 29.38278 33960 ft 412 kts 289°
2026-05-04 18:05 36.01790 29.31587 33969 ft 411 kts 289°
2026-05-04 18:06 36.04483 29.21499 33949 ft 412 kts 289°
2026-05-04 18:06 36.06263 29.14797 33953 ft 412 kts 290°
2026-05-04 18:07 36.08053 29.08060 33979 ft 411 kts 289°
2026-05-04 18:07 36.09834 29.01324 33978 ft 412 kts 289°
2026-05-04 18:08 36.11610 28.94600 33960 ft 413 kts 290°
2026-05-04 18:08 36.13392 28.87867 33970 ft 413 kts 290°
2026-05-04 18:09 36.16938 28.74336 33979 ft 414 kts 289°
2026-05-04 18:10 36.18719 28.67513 33984 ft 415 kts 290°
2026-05-04 18:10 36.20490 28.60726 33989 ft 415 kts 290°
2026-05-04 18:11 36.22254 28.53934 34003 ft 415 kts 290°
2026-05-04 18:11 36.24026 28.47103 34000 ft 416 kts 289°
2026-05-04 18:12 36.25791 28.40254 34006 ft 416 kts 290°
2026-05-04 18:12 36.27546 28.33437 34000 ft 416 kts 290°
2026-05-04 18:13 36.29301 28.26603 33997 ft 417 kts 290°
2026-05-04 18:14 36.31927 28.16319 34008 ft 418 kts 290°
2026-05-04 18:14 36.33683 28.09409 33995 ft 419 kts 290°
2026-05-04 18:15 36.38310 27.96236 33999 ft 417 kts 296°
2026-05-04 18:16 36.40669 27.89632 34004 ft 417 kts 296°
2026-05-04 18:16 36.43010 27.83072 34016 ft 417 kts 296°
2026-05-04 18:17 36.46524 27.73216 34029 ft 417 kts 296°
2026-05-04 18:18 36.50048 27.63303 34051 ft 417 kts 296°
2026-05-04 18:18 36.52381 27.56722 34061 ft 417 kts 296°
2026-05-04 18:19 36.55875 27.46828 34057 ft 416 kts 296°
2026-05-04 18:19 36.58190 27.40255 34065 ft 415 kts 296°
2026-05-04 18:20 36.60506 27.33664 34066 ft 415 kts 296°
2026-05-04 18:20 36.62814 27.27090 34070 ft 415 kts 296°
2026-05-04 18:21 36.65130 27.20510 34079 ft 415 kts 296°
2026-05-04 18:21 36.67450 27.13903 34059 ft 415 kts 296°
2026-05-04 18:22 36.69742 27.07323 34067 ft 414 kts 296°
2026-05-04 18:22 36.72024 27.00744 34071 ft 414 kts 296°
2026-05-04 18:23 36.74310 26.94151 34073 ft 414 kts 296°
2026-05-04 18:23 36.76585 26.87574 34076 ft 413 kts 296°
2026-05-04 18:24 36.78849 26.81012 34073 ft 413 kts 296°
2026-05-04 18:24 36.81117 26.74424 34095 ft 412 kts 296°
2026-05-04 18:25 36.83373 26.67866 34100 ft 412 kts 296°
2026-05-04 18:25 36.85630 26.61309 34106 ft 412 kts 296°
2026-05-04 18:26 36.87884 26.54719 34096 ft 412 kts 296°
2026-05-04 18:26 36.90129 26.48150 34111 ft 411 kts 296°
2026-05-04 18:27 36.92369 26.41579 34112 ft 411 kts 296°
2026-05-04 18:27 36.94598 26.35017 34118 ft 411 kts 296°
2026-05-04 18:28 36.96823 26.28426 34121 ft 411 kts 296°
2026-05-04 18:28 36.99049 26.21850 34100 ft 410 kts 296°
2026-05-04 18:29 37.01288 26.15265 34106 ft 410 kts 296°
2026-05-04 18:29 37.03506 26.08738 34107 ft 410 kts 296°
2026-05-04 18:30 37.06847 25.98836 34104 ft 411 kts 296°
2026-05-04 18:31 37.09068 25.92228 34090 ft 412 kts 296°
2026-05-04 18:31 37.11281 25.85638 34101 ft 412 kts 296°
2026-05-04 18:32 37.13506 25.79014 34102 ft 413 kts 296°
2026-05-04 18:32 37.15737 25.72365 34110 ft 413 kts 296°
2026-05-04 18:33 37.17964 25.65713 34113 ft 413 kts 296°
2026-05-04 18:33 37.20189 25.59038 33733 ft 427 kts 296°
2026-05-04 18:33 37.21354 25.55549 33460 ft 437 kts 296°
2026-05-04 18:34 37.22534 25.52006 33181 ft 442 kts 296°
2026-05-04 18:34 37.23721 25.48409 32904 ft 445 kts 295°
2026-05-04 18:34 37.24867 25.44865 32421 ft 440 kts 295°
2026-05-04 18:34 37.26004 25.41300 31903 ft 441 kts 295°
2026-05-04 18:35 37.27152 25.37685 31387 ft 446 kts 295°
2026-05-04 18:35 37.28267 25.34068 30889 ft 451 kts 293°
2026-05-04 18:35 37.29326 25.30330 30388 ft 455 kts 291°
2026-05-04 18:35 37.30330 25.26551 29874 ft 456 kts 290°
2026-05-04 18:36 37.31302 25.22763 29361 ft 456 kts 290°
2026-05-04 18:36 37.32273 25.18960 28883 ft 457 kts 290°
2026-05-04 18:36 37.33258 25.15150 28394 ft 457 kts 290°
2026-05-04 18:36 37.34246 25.11390 27917 ft 458 kts 291°
2026-05-04 18:37 37.35259 25.07584 27429 ft 459 kts 291°
2026-05-04 18:37 37.36284 25.03767 26930 ft 460 kts 291°
2026-05-04 18:37 37.37304 24.99971 26470 ft 452 kts 291°
2026-05-04 18:37 37.38285 24.96289 26243 ft 436 kts 290°
2026-05-04 18:38 37.39216 24.92767 26094 ft 410 kts 290°
2026-05-04 18:38 37.40081 24.89478 25676 ft 394 kts 290°
2026-05-04 18:38 37.40936 24.86237 25036 ft 386 kts 291°
2026-05-04 18:38 37.41778 24.83060 24353 ft 380 kts 291°
2026-05-04 18:39 37.42613 24.79912 23671 ft 375 kts 291°
2026-05-04 18:39 37.43438 24.76800 23153 ft 374 kts 291°
2026-05-04 18:39 37.44263 24.73694 22700 ft 373 kts 291°
2026-05-04 18:39 37.45070 24.70649 22259 ft 366 kts 291°
2026-05-04 18:40 37.45858 24.67656 21698 ft 354 kts 291°
2026-05-04 18:40 37.46624 24.64731 21112 ft 350 kts 291°
2026-05-04 18:40 37.47384 24.61828 20751 ft 347 kts 291°
2026-05-04 18:40 37.48129 24.58987 20346 ft 344 kts 291°
2026-05-04 18:41 37.48691 24.56069 19942 ft 345 kts 278°
2026-05-04 18:41 37.48838 24.53044 19553 ft 344 kts 276°
2026-05-04 18:41 37.48933 24.50031 19160 ft 342 kts 275°
2026-05-04 18:41 37.48991 24.48059 18908 ft 341 kts 275°
2026-05-04 18:42 37.49102 24.44159 18652 ft 330 kts 275°
2026-05-04 18:42 37.49180 24.41277 18349 ft 326 kts 275°
2026-05-04 18:42 37.49231 24.39393 18070 ft 323 kts 275°
2026-05-04 18:42 37.49306 24.36577 17362 ft 320 kts 275°
2026-05-04 18:43 37.49417 24.32853 16753 ft 319 kts 275°
2026-05-04 18:43 37.49500 24.30072 16387 ft 317 kts 275°
2026-05-04 18:43 37.49555 24.28210 16058 ft 319 kts 275°
2026-05-04 18:43 37.49639 24.25378 15446 ft 326 kts 275°
2026-05-04 18:44 37.49721 24.22558 15287 ft 317 kts 275°
2026-05-04 18:44 37.49771 24.20729 15110 ft 314 kts 275°
2026-05-04 18:44 37.49867 24.17118 14432 ft 308 kts 275°
2026-05-04 18:44 37.49970 24.14413 13955 ft 307 kts 282°
2026-05-04 18:45 37.50552 24.11872 13600 ft 300 kts 294°
2026-05-04 18:45 37.51311 24.09422 13240 ft 298 kts 295°
2026-05-04 18:45 37.52070 24.07030 12899 ft 296 kts 295°
2026-05-04 18:45 37.52834 24.04631 12532 ft 294 kts 295°
2026-05-04 18:46 37.53600 24.02244 12189 ft 293 kts 295°
2026-05-04 18:46 37.54349 23.99860 11857 ft 291 kts 291°
2026-05-04 18:46 37.54658 23.97337 11678 ft 288 kts 277°
2026-05-04 18:46 37.54733 23.94866 11548 ft 278 kts 275°
2026-05-04 18:47 37.54779 23.92489 11358 ft 263 kts 275°
2026-05-04 18:47 37.54815 23.90244 10967 ft 257 kts 275°
2026-05-04 18:47 37.54846 23.88002 10521 ft 254 kts 275°
2026-05-04 18:47 37.54872 23.85792 10072 ft 251 kts 275°
2026-05-04 18:48 37.54893 23.83597 9578 ft 248 kts 275°
2026-05-04 18:48 37.54910 23.81429 9157 ft 248 kts 275°
2026-05-04 18:48 37.54923 23.79264 8873 ft 246 kts 275°
2026-05-04 18:48 37.55152 23.77179 8574 ft 235 kts 298°
2026-05-04 18:49 37.56123 23.75614 8271 ft 225 kts 329°
2026-05-04 18:49 37.57529 23.74837 7936 ft 222 kts 343°
2026-05-04 18:49 37.59014 23.74286 7634 ft 221 kts 345°
2026-05-04 18:49 37.60491 23.73768 7349 ft 220 kts 346°
2026-05-04 18:50 37.61949 23.73265 7066 ft 218 kts 345°
2026-05-04 18:50 37.63416 23.72760 6784 ft 217 kts 345°
2026-05-04 18:50 37.64869 23.72260 6503 ft 216 kts 345°
2026-05-04 18:50 37.66311 23.71765 6298 ft 213 kts 345°
2026-05-04 18:51 37.67732 23.71281 6222 ft 214 kts 345°
2026-05-04 18:51 37.69182 23.70811 6225 ft 215 kts 351°
2026-05-04 18:51 37.70650 23.70930 6221 ft 209 kts 17°
2026-05-04 18:51 37.71839 23.72057 5723 ft 227 kts 50°
2026-05-04 18:52 37.72788 23.73682 5139 ft 235 kts 38°
2026-05-04 18:52 37.74109 23.74886 4747 ft 234 kts 30°
2026-05-04 18:52 37.75432 23.76060 4418 ft 228 kts 33°
2026-05-04 18:52 37.76677 23.77226 4123 ft 218 kts 33°
2026-05-04 18:53 37.77867 23.78351 3843 ft 208 kts 34°
2026-05-04 18:53 37.78999 23.79423 3564 ft 198 kts 34°
2026-05-04 18:53 37.80068 23.80434 3304 ft 189 kts 33°
2026-05-04 18:53 37.81093 23.81404 3086 ft 181 kts 33°
2026-05-04 18:54 37.82100 23.82356 2810 ft 179 kts 34°
2026-05-04 18:54 37.83066 23.83271 2568 ft 167 kts 34°
2026-05-04 18:54 37.83958 23.84117 2361 ft 152 kts 34°
2026-05-04 18:54 37.84778 23.84894 2166 ft 145 kts 34°
2026-05-04 18:55 37.85569 23.85642 1972 ft 142 kts 35°
2026-05-04 18:55 37.87155 23.87145 1584 ft 142 kts 35°
2026-05-04 18:55 37.87939 23.87888 1392 ft 142 kts 36°
2026-05-04 18:56 37.88729 23.88637 1196 ft 142 kts 36°
2026-05-04 18:56 37.89520 23.89389 994 ft 142 kts 36°
2026-05-04 18:56 37.90303 23.90130 750 ft 142 kts 37°
2026-05-04 18:56 37.91085 23.90893 542 ft 141 kts 36°
2026-05-04 18:57 37.91867 23.91631 395 ft 139 kts 36°
2026-05-04 18:57 37.92637 23.92359 329 ft 140 kts 36°
2026-05-04 18:57 37.93334 23.93020 292 ft 100 kts 36°
2026-05-04 18:57 37.93754 23.93419 293 ft 47 kts 37°
2026-05-04 18:58 37.93897 23.93610 295 ft 20 kts 60°
2026-05-04 18:58 37.93962 23.93766 299 ft 20 kts 62°
2026-05-04 18:58 37.94011 23.93924 301 ft 20 kts 58°
2026-05-04 18:58 37.94080 23.94003 300 ft 12 kts 38°
2026-05-04 18:59 37.94140 23.94060 301 ft 7 kts 36°
2026-05-04 18:59 37.94187 23.94104 302 ft 9 kts 36°
2026-05-04 18:59 37.94245 23.94161 302 ft 13 kts 38°
2026-05-04 18:59 37.94323 23.94234 302 ft 15 kts 36°
2026-05-04 19:00 37.94415 23.94322 303 ft 18 kts 37°
2026-05-04 19:00 37.94522 23.94422 303 ft 20 kts 37°
2026-05-04 19:00 37.94642 23.94535 303 ft 23 kts 37°
2026-05-04 19:00 37.94669 23.94652 302 ft 15 kts 123°
2026-05-04 19:01 37.94601 23.94767 301 ft 18 kts 128°
2026-05-04 19:01 37.94521 23.94901 301 ft 20 kts 127°
2026-05-04 19:01 37.94431 23.95053 301 ft 23 kts 126°
2026-05-04 19:01 37.94354 23.95180 301 ft 11 kts 128°
2026-05-04 19:02 37.94299 23.95237 301 ft 7 kts 178°
2026-05-04 19:02 37.94291 23.95234 301 ft 3 kts 195°
2026-05-04 19:02 37.94263 23.95212 303 ft 6 kts 217°
2026-05-04 19:02 37.94242 23.95192 302 ft 1 kts 216°
2026-05-04 19:03 37.94230 23.95179 303 ft 0 kts 218°